Regional Weather Roundup
Issued by NWS

Home | Current Version | Previous Version | Graphics & Text | Print | Product List | Glossary On
Versions: 1 2 3 4 5 6 7 8 9 10 11 12 13 14 15 16 17 18 19 20 21 22 23 24 25 26 27 28
000
ASUS45 KCYS 201310
RWRWY

WYOMING REGIONAL WEATHER ROUNDUP
NATIONAL WEATHER SERVICE CHEYENNE WY
700 AM MDT WED SEP 20 2017

NOTE:  "FAIR" INDICATES FEW OR NO CLOUDS BELOW 12,000 FEET
WITH NO SIGNIFICANT WEATHER AND/OR OBSTRUCTIONS TO VISIBILITY.

WYZ001-201400-
YELLOWSTONE NATIONAL PARK

CITY           SKY/WX    TMP DP  RH WIND       PRES   REMARKS
LK YELLOWSTONE NOT AVBL
W YELLOWSTONE  NOT AVBL

$$
WYZ002>013-054>058-071-098>099-201400-
NORTHERN WYOMING

CITY           SKY/WX    TMP DP  RH WIND       PRES   REMARKS
JACKSON        CLOUDY    38  27  64 S14       29.92R WCI  30
CODY           FAIR      40  26  57 W7        29.81R
GREYBULL       FAIR      38  36  92 SE5       29.82R WCI  34
WORLAND        FAIR      33  32  96 SE7       29.82R WCI  27
SHERIDAN       FAIR      48  25  40 W8        29.75S
BUFFALO        FAIR      41  24  51 S6        29.79R
GILLETTE       FAIR      43  28  55 SW21G29   29.78R
HULETT         FAIR      41  32  70 SW12G17   29.81R
NEWCASTLE      FAIR      36  32  87 E6        29.87R WCI  31

$$
WYZ014>020-022>026-101>103-201400-
CENTRAL WYOMING

CITY           SKY/WX    TMP DP  RH WIND       PRES   REMARKS
BIG PINEY      FAIR      26  23  88 SE5       29.98S WCI  20
PINEDALE       CLOUDY    28  27  93 CALM      29.99F
DUBOIS         CLOUDY    32  27  80 NW9       29.88S WCI  24
LANDER           N/A    N/A N/A N/A MISG      29.88R
RIVERTON       FAIR      37  25  61 SE5       29.89R WCI  33
CASPER         FAIR      37  25  61 SW16      29.92R WCI  28
DOUGLAS        FAIR      43  21  41 W12       29.91R

$$
WYZ021-027>030-104>119-201400-
SOUTHERN WYOMING

CITY           SKY/WX    TMP DP  RH WIND       PRES   REMARKS
EVANSTON       FAIR      32  29  88 S6        30.00R WCI  26
KEMMERER         N/A     32  28  86 SE6       29.99S WCI  26
FORT BRIDGER   FAIR      33  27  78 SW8       30.03R WCI  27
ROCK SPRINGS   FAIR      33  27  78 W5        30.01R WCI  29
DIXON          CLOUDY    39  35  85 E5        30.04F
RAWLINS        FAIR      35  29  78 SW6       29.99S WCI  30
SARATOGA       PTSUNNY   36  32  87 SE8       30.02S WCI  29
LARAMIE        FAIR      38  24  57 SW17      30.00R WCI  28
CHEYENNE       FAIR      43  28  55 W16       29.98R
TORRINGTON     FAIR      47  30  51 S8        29.91R
PINE BLUFFS    CLOUDY    48  28  46 MISG      29.97S

$$




USA.gov is the U.S. government's official web portal to all federal, state and local government web resources and services.